Weather History for Sumburgh, United Kingdom

Change the Weather History Date:

Thursday, February 7, 2013

  Actual Average Record
Temperature  
Mean Temperature 36 °F -  
Max Temperature 39 °F 41 °F 48 °F (2002)
Min Temperature 32 °F 36 °F 28 °F (1999)
Degree Days  
Heating Degree Days 30    
Moisture  
Dew Point 30 °F    
Average Humidity 82    
Maximum Humidity 93    
Minimum Humidity 65    
Precipitation  
Precipitation 0.00 in - - ()
Sea Level Pressure  
Sea Level Pressure 29.96 in    
Wind  
Wind Speed 9 mph ()    
Max Wind Speed 20 mph    
Max Gust Speed 25 mph    
Visibility 6.2 miles    
Events Rain    
Averages and records for this station are not official NWS values.
T = Trace of Precipitation, MM = Missing Value Source: Averaged Metar Reports

Daily Weather History Graph

Daily Weather History Graph

Search for Another Location

Airport:

Trip Planner

Search our weather history database for the weather conditions in past years. The results will help you decide how hot, cold, wet, or windy it might be!

Date:

Astronomy

Feb. 07, 2013 Rise Set
Actual Time 8:03 AM GMT 4:36 PM GMT
Civil Twilight 7:18 AM GMT 5:21 PM GMT
Nautical Twilight 6:28 AM GMT 6:11 PM GMT
Astronomical Twilight 5:40 AM GMT 6:59 PM GMT
Moon 5:59 AM GMT (2/7) 1:16 PM GMT (2/7)
Length of Visible Light 10h 03m
Length of Day
8h 32m
Waning Crescent, 10% of the Moon is Illuminated
Feb 7
Waning Crescent
Feb 10
New
Feb 17
First Quarter
Feb 25
Full
Mar 4
Last Quarter

Hourly Weather History & Observations

Time (GMT) Temp. Windchill Dew Point Humidity Pressure Visibility Wind Dir Wind Speed Gust Speed Precip Events Conditions
12:20 AM 35.6 °F 26.2 °F 32.0 °F 87% 29.98 in 6.2 mi North 15.0 mph - N/A Rain Light Rain Showers
12:50 AM 35.6 °F 26.6 °F 32.0 °F 87% 29.98 in 6.2 mi North 13.8 mph 25.3 mph N/A Rain Light Rain Showers
1:20 AM 35.6 °F 26.2 °F 30.2 °F 81% 29.98 in 6.2 mi North 15.0 mph - N/A   Mostly Cloudy
1:50 AM 35.6 °F 25.5 °F 30.2 °F 81% 29.98 in 6.2 mi North 17.3 mph - N/A   Scattered Clouds
2:20 AM 35.6 °F 25.9 °F 30.2 °F 81% 29.95 in 6.2 mi North 16.1 mph - N/A   Mostly Cloudy
2:50 AM 35.6 °F 24.8 °F 30.2 °F 81% 29.95 in 6.2 mi North 19.6 mph - N/A   Scattered Clouds
3:20 AM 35.6 °F 25.5 °F 32.0 °F 87% 29.95 in 6.2 mi NNW 17.3 mph - N/A   Scattered Clouds
3:50 AM 35.6 °F 27.1 °F 32.0 °F 87% 29.95 in 6.2 mi NNW 12.7 mph - N/A   Scattered Clouds
4:20 AM 33.8 °F 23.9 °F 30.2 °F 87% 29.95 in 6.2 mi North 15.0 mph - N/A   Scattered Clouds
4:50 AM 33.8 °F 27.0 °F 30.2 °F 87% 29.95 in 6.2 mi North 8.1 mph - N/A   Scattered Clouds
5:20 AM 33.8 °F 27.0 °F 30.2 °F 87% 29.95 in 6.2 mi North 8.1 mph - N/A   Partly Cloudy
5:50 AM 33.8 °F 26.4 °F 30.2 °F 87% 29.95 in 6.2 mi North 9.2 mph - N/A   Scattered Clouds
6:20 AM 33.8 °F 25.8 °F 30.2 °F 87% 29.95 in 6.2 mi North 10.4 mph - N/A   Mostly Cloudy
6:50 AM 33.8 °F 25.8 °F 30.2 °F 87% 29.95 in 6.2 mi North 10.4 mph - N/A   Scattered Clouds
7:20 AM 33.8 °F 27.7 °F 32.0 °F 93% 29.95 in 6.2 mi NNW 6.9 mph - N/A   Scattered Clouds
7:50 AM 33.8 °F 26.4 °F 30.2 °F 87% 29.95 in 6.2 mi North 9.2 mph - N/A   Scattered Clouds
8:20 AM 33.8 °F 25.3 °F 30.2 °F 87% 29.95 in 6.2 mi North 11.5 mph - N/A   Scattered Clouds
8:50 AM 33.8 °F 26.4 °F 30.2 °F 87% 29.95 in 6.2 mi North 9.2 mph - N/A   Scattered Clouds
9:20 AM 35.6 °F 31.7 °F 28.4 °F 75% 29.95 in 6.2 mi North 4.6 mph - N/A   Scattered Clouds
9:50 AM 35.6 °F 28.0 °F 30.2 °F 81% 29.95 in 6.2 mi North 10.4 mph - N/A   Scattered Clouds
10:20 AM 35.6 °F 30.7 °F 30.2 °F 81% 29.95 in 6.2 mi North 5.8 mph - N/A   Mostly Cloudy
10:50 AM 35.6 °F 29.2 °F 32.0 °F 87% 29.95 in 6.2 mi NW 8.1 mph - N/A   Mostly Cloudy
11:20 AM 37.4 °F 31.4 °F 32.0 °F 81% 29.95 in 6.2 mi North 8.1 mph - N/A   Mostly Cloudy
11:50 AM 35.6 °F 30.7 °F 30.2 °F 81% 29.95 in 6.2 mi North 5.8 mph - N/A   Mostly Cloudy
12:20 PM 37.4 °F 31.4 °F 30.2 °F 75% 29.95 in 6.2 mi NW 8.1 mph - N/A   Scattered Clouds
12:50 PM 37.4 °F 32.1 °F 30.2 °F 75% 29.95 in 6.2 mi NW 6.9 mph - N/A   Scattered Clouds
1:20 PM 39.2 °F 33.0 °F 30.2 °F 70% 29.95 in 6.2 mi NNW 9.2 mph - N/A   Scattered Clouds
1:50 PM 39.2 °F 33.0 °F 30.2 °F 70% 29.95 in 6.2 mi North 9.2 mph - N/A   Scattered Clouds
2:20 PM 35.6 °F 31.7 °F 28.4 °F 75% 29.95 in 6.2 mi NNW 4.6 mph - N/A   Partly Cloudy
2:50 PM 37.4 °F 33.8 °F 26.6 °F 65% 29.95 in 6.2 mi NNW 4.6 mph - N/A   Scattered Clouds
3:20 PM 37.4 °F 33.8 °F 28.4 °F 70% 29.95 in 6.2 mi North 4.6 mph - N/A   Scattered Clouds
3:50 PM 37.4 °F - 28.4 °F 70% 29.95 in 6.2 mi North 2.3 mph - N/A   Mostly Cloudy
4:20 PM 37.4 °F 34.9 °F 28.4 °F 70% 29.95 in 6.2 mi NNW 3.5 mph - N/A   Mostly Cloudy
4:50 PM 35.6 °F - 28.4 °F 75% 29.95 in 6.2 mi NNW 2.3 mph - N/A   Mostly Cloudy
5:20 PM 37.4 °F 32.8 °F 30.2 °F 75% 29.95 in 6.2 mi NW 5.8 mph - N/A   Mostly Cloudy
5:50 PM 35.6 °F 32.8 °F 30.2 °F 81% 29.98 in 6.2 mi Variable 3.5 mph - N/A   Mostly Cloudy
6:20 PM 35.6 °F - 28.4 °F 75% 29.98 in 6.2 mi NNW 2.3 mph - N/A   Mostly Cloudy
6:50 PM 35.6 °F 32.8 °F 30.2 °F 81% 29.98 in 6.2 mi North 3.5 mph - N/A   Scattered Clouds
7:20 PM 32.0 °F - 28.4 °F 87% 29.98 in 6.2 mi North 2.3 mph - N/A   Partly Cloudy
7:50 PM 32.0 °F - 28.4 °F 87% 29.98 in 6.2 mi Calm Calm - N/A   Partly Cloudy
8:20 PM 33.8 °F 29.6 °F 30.2 °F 87% 29.98 in 6.2 mi NNE 4.6 mph - N/A   Mostly Cloudy
8:50 PM 33.8 °F - 30.2 °F 87% 29.98 in 6.2 mi North 2.3 mph - N/A   Mostly Cloudy
9:20 PM 33.8 °F 30.8 °F 30.2 °F 87% 29.98 in 6.2 mi NW 3.5 mph - N/A   Mostly Cloudy
9:50 PM 35.6 °F - 30.2 °F 81% 29.98 in 6.2 mi NNW 2.3 mph - N/A Rain Light Rain Showers
10:20 PM 33.8 °F - 30.2 °F 87% 29.98 in 6.2 mi Calm Calm - N/A   Mostly Cloudy
10:50 PM 33.8 °F - 30.2 °F 87% 29.98 in 6.2 mi Calm Calm - N/A   Overcast
11:20 PM 33.8 °F - 30.2 °F 87% 29.98 in 6.2 mi Calm Calm - N/A   Mostly Cloudy
11:50 PM 32.0 °F - 28.4 °F 87% 29.98 in 6.2 mi Calm Calm - N/A   Unknown